Location: Moydans
(44.3997°N, 5.5038°E)
Time: 01:38:08
(UTC+02:00)

Nauka - Pass Details

Date: 24 September 2021
Orbit: 418 x 423 km, 51.6° (Epoch: 18 October)

Event Time Altitude Azimuth Distance (km) Brightness Sun altitude
Rises 22:29:34 0° 300° (WNW) 2,366 ? -31.0°
Reaches altitude 10° 22:31:50 10° 311° (NW) 1,502 ? -31.3°
Enters shadow 22:32:10 12° 314° (NW) 1,385 ? -31.3°
